Location: Ar Ranvel
(48.3000°N, 4.8833°W)
Time: 14:17:11
(UTC+00:00)

Cosmos 2360 Rocket - Visible Passes

Search period start: 22 October 2021 00:00
Search period end: 01 November 2021 00:00
Orbit: 832 x 846 km, 71.0° (Epoch: 22 October)

Date Brightness Start Highest point End Pass type
(mag) Time Alt. Az. Time Alt. Az. Time Alt. Az.
22 Oct 5.1 02:10:27 10° NNE 02:11:39 11° NNE 02:12:50 10° NE visible
22 Oct 3.7 03:52:20 10° NNW 03:57:31 35° NE 04:02:40 10° ESE visible
22 Oct 2.4 05:36:15 10° NW 05:41:41 47° WSW 05:47:04 10° S visible
22 Oct 2.8 18:47:23 10° SSE 18:52:17 31° ESE 18:54:25 24° ENE visible
22 Oct 3.0 20:30:38 10° SW 20:36:05 48° NW 20:36:17 48° NW visible
23 Oct 5.1 01:55:20 10° NNE 01:55:47 10° NNE 01:56:31 10° NNE visible
23 Oct 3.7 03:37:11 13° NNW 03:41:43 33° NE 03:46:49 10° ESE visible
23 Oct 2.4 05:20:28 10° NW 05:25:56 50° WSW 05:31:23 10° S visible
23 Oct 2.9 18:31:46 10° SSE 18:36:33 30° ESE 18:40:24 15° NE visible
23 Oct 2.9 20:14:49 10° SW 20:20:18 51° NW 20:22:15 36° N visible
23 Oct 5.0 22:02:51 10° WNW 22:04:05 13° NW 22:04:05 13° NW visible
24 Oct 3.8 03:23:13 22° N 03:25:55 32° NE 03:30:57 10° ESE visible
24 Oct 2.3 05:05:06 12° NW 05:10:12 53° WSW 05:15:41 10° S visible
24 Oct 3.0 18:16:08 10° SSE 18:20:50 28° ESE 18:25:34 10° NE visible
24 Oct 2.8 19:59:00 10° SW 20:04:31 54° WNW 20:07:54 23° NNE visible
24 Oct 4.8 21:46:51 10° WNW 21:49:42 14° NW 21:49:42 14° NW visible
25 Oct 3.8 03:09:31 30° NE 03:10:07 30° NE 03:15:05 10° ESE visible
25 Oct 2.2 04:51:25 26° NW 04:54:27 56° WSW 04:59:58 10° S visible
25 Oct 3.1 18:00:31 10° SSE 18:05:06 26° ESE 18:09:45 10° NE visible
25 Oct 2.7 19:43:11 10° SW 19:48:44 57° WNW 19:53:15 16° NNE visible
25 Oct 4.8 21:30:52 10° WNW 21:34:03 15° NW 21:35:03 14° NNW visible
26 Oct 4.1 02:56:00 25° ENE 02:56:00 25° ENE 02:59:12 10° ESE visible
26 Oct 2.1 04:37:53 54° WNW 04:38:42 60° WSW 04:44:15 10° S visible
26 Oct 3.2 17:44:54 10° SSE 17:49:23 25° ESE 17:53:54 10° NE visible
26 Oct 2.7 19:27:23 10° SW 19:32:57 60° WNW 19:38:23 11° NNE visible
26 Oct 4.7 21:14:53 10° WNW 21:18:13 16° NW 21:20:10 13° NNW visible
27 Oct 4.8 02:42:33 13° E 02:42:33 13° E 02:43:18 10° ESE visible
27 Oct 2.6 04:24:26 46° S 04:24:26 46° S 04:28:32 10° SSE visible
27 Oct 2.6 19:11:35 10° SW 19:17:11 63° WNW 19:22:51 10° NNE visible
27 Oct 4.7 20:58:53 10° WNW 21:02:22 16° NW 21:05:07 12° N visible
28 Oct 3.8 04:10:58 21° S 04:10:58 21° S 04:12:48 10° SSE visible
28 Oct 2.5 18:55:47 10° SW 19:01:24 67° WNW 19:07:05 10° NNE visible
28 Oct 4.7 20:42:56 10° WNW 20:46:32 17° NW 20:49:58 11° N visible
29 Oct 2.5 18:40:00 10° SW 18:45:37 71° WNW 18:51:19 10° NNE visible
29 Oct 4.6 20:26:58 10° W 20:30:42 18° NW 20:34:27 10° N visible
30 Oct 2.4 18:24:12 10° SSW 18:29:51 75° WNW 18:35:34 10° NNE visible
30 Oct 4.6 20:11:01 10° W 20:14:52 18° NW 20:18:45 10° N visible
31 Oct 2.3 18:08:25 10° SSW 18:14:04 79° WNW 18:19:48 10° NNE visible
31 Oct 4.5 19:55:04 10° W 19:59:02 19° NW 20:03:02 10° N visible
